Flag Weather past 2 weeks in Plano, Texas, U.S.A.

Now
58 °F

Clear.


Feels Like: 57 °F
Forecast: 45 / 64 °F
Wind: 6 mph from Northwest

Location: McKinney Municipal Airport

Current Time: Oct 31, 2014 at 12:02:09 AM

Latest Report: Oct 30, 2014 at 10:53 PM


Visibility: 10 mi

Pressure: 30.16 "Hg

Humidity: 84%

Dew point: 53 °F

Location of PlanoLocation

Historic Weather in Plano — Graph

°F

Plano temperature yesterday

Maximum temperature yesterday: 74 °F (at 1:53 PM)
Minimum temperature yesterday: 44 °F (at 6:53 AM)
Average temperature yesterday: 60 °F

Past Weeks' High & Low Weather Summary

 TemperatureHumidityPressure
High87 °F (Oct 16, 2:53 PM)97% (Oct 20, 12:53 AM)30.24 "Hg (Oct 20, 12:53 AM)
Low44 °F (Oct 30, 6:53 AM)22% (Oct 16, 2:53 PM)29.76 "Hg (Oct 27, 4:53 PM)
Average67 °F67%30.04 "Hg
* Reported Oct 15 10:53 PM — Oct 30 10:53 PM, Plano, Weather by CustomWeather, © 2014

Note: Actual official high and low records may vary slightly from our data, if they occured in-between our weather recording intervals... More about our weather records

Advertising

Plano weather history for previous 24 hours

 ConditionsComfort  
Time TempWeatherWind HumidityBarometerVisibility
10:53 PM
Oct 30
58 °FClear.6 mph84%30.16 "Hg10 mi
9:53 PM57 °FClear.7 mph90%30.14 "Hg10 mi
8:53 PM60 °FClear.No wind80%30.13 "Hg10 mi
7:53 PM65 °FClear.6 mph68%30.11 "Hg10 mi
6:53 PM69 °FScattered clouds.No wind57%30.10 "Hg10 mi
5:53 PM72 °FPartly sunny.3 mph52%30.09 "Hg10 mi
4:53 PM73 °FMostly cloudy.7 mph46%30.09 "Hg10 mi
3:53 PM74 °FOvercast.6 mph41%30.08 "Hg10 mi
2:53 PM74 °FScattered clouds.5 mph40%30.09 "Hg10 mi
1:53 PM74 °FSunny.7 mph40%30.11 "Hg10 mi
12:53 PM72 °FSunny.10 mph41%30.14 "Hg10 mi
11:53 AM70 °FSunny.15 mph44%30.17 "Hg10 mi
10:53 AM67 °FSunny.12 mph51%30.18 "Hg10 mi
9:53 AM61 °FSunny.8 mph65%30.19 "Hg10 mi
8:53 AM51 °FSunny.No wind83%30.18 "Hg10 mi
7:53 AM46 °FClear.No wind89%30.17 "Hg10 mi
6:53 AM44 °FClear.No wind93%30.16 "Hg10 mi
5:53 AM46 °FClear.No wind86%30.13 "Hg10 mi
4:53 AM47 °FClear.No wind86%30.14 "Hg10 mi
3:53 AM46 °FClear.No wind93%30.15 "Hg10 mi
2:53 AM47 °FClear.No wind90%30.15 "Hg10 mi
1:53 AM48 °FClear.No wind86%30.15 "Hg10 mi
12:53 AM49 °FClear.No wind84%30.16 "Hg10 mi
Weather by CustomWeather, © 2014

See weather overviewHow to use our weather pages